Location: Caltech
(34.1382°N, 118.1253°W)
Time: 13:37:57
(UTC-07:00)

AO-27 - Visible Passes

Search period start: 23 May 2017 00:00
Search period end: 02 June 2017 00:00
Orbit: 785 x 798 km, 98.8° (Epoch: 22 May)

Date Brightness Start Highest point End Pass type
(mag) Time Alt. Az. Time Alt. Az. Time Alt. Az.
23 May 8.8 03:45:47 10° NNE 03:50:39 39° E 03:55:00 13° SSE visible
24 May 9.8 03:17:41 10° NE 03:21:27 20° E 03:25:11 10° SE visible
24 May 8.2 04:56:10 10° N 05:01:01 41° WNW 05:05:52 10° SW visible
25 May 7.6 04:26:52 10° N 04:32:06 80° WNW 04:37:02 12° SSW visible
26 May 8.3 03:57:58 10° NNE 04:03:03 52° E 04:07:39 13° S visible
27 May 9.4 03:29:34 10° NE 03:33:55 26° E 03:38:15 10° SSE visible
27 May 8.6 05:08:47 10° N 05:13:20 31° WNW 05:17:52 10° SW visible
28 May 10.2 03:02:16 10° ENE 03:04:39 13° E 03:07:01 10° ESE visible
28 May 7.8 04:39:19 10° N 04:44:27 60° WNW 04:49:35 10° SSW visible
29 May 7.9 04:10:15 10° NNE 04:15:28 69° ESE 04:20:18 12° S visible
30 May 9.0 03:41:36 10° NNE 03:46:22 35° E 03:50:56 11° SSE visible
31 May 10.0 03:13:41 10° NE 03:17:09 18° E 03:20:35 10° SE visible
31 May 8.1 04:51:49 10° N 04:56:47 46° WNW 05:01:44 10° SW visible
01 Jun 7.7 04:22:35 10° NNE 04:27:50 89° WNW 04:32:56 11° SSW visible
